Regional Weather Roundup
Issued by NWS

Home | Current Version | Previous Version | Graphics & Text | Print | Product List | Glossary Off
Versions: 1 2 3 4 5 6 7 8 9 10 11 12 13 14 15 16 17 18 19 20 21 22 23 24 25 26 27 28 29 30 31 32 33 34 35 36 37 38 39 40 41 42 43 44 45 46 47 48 49 50

000
ASUS43 KTOP 261259
RWRKS

WEATHER ROUNDUP FOR KANSAS
NATIONAL WEATHER SERVICE GOODLAND KS
800 AM CDT THU MAR 26 2015

NOTE:  "FAIR" INDICATES FEW OR NO CLOUDS BELOW 12,000 FEET WITH NO
SIGNIFICANT WEATHER AND/OR OBSTRUCTIONS TO VISIBILITY.

KSZ001>006-013>018-027>032-041>047-261400-
NORTHWEST KANSAS

CITY           SKY/WX    TMP DP  RH WIND       PRES   REMARKS
GOODLAND       CLEAR     28  25  88 W7        30.21R
HAYS           CLEAR     25  16  68 NW7       30.27R
HILL CITY      CLEAR     22  19  89 W5        30.26R
RUSSELL        FAIR      27  23  85 NW5       30.26R
$$

KSZ061>065-074>080-084>089-261400-
SOUTHWEST KANSAS

CITY           SKY/WX    TMP DP  RH WIND       PRES   REMARKS
DODGE CITY     CLEAR     26  23  88 NW7       30.26R
ELKHART          N/A     32  26  78 W10         N/A  WCI  24
GARDEN CITY    PTCLDY    26  25  96 W6        30.26R
GREAT BEND     CLEAR     25  19  80 NW8       30.28R
LIBERAL        CLEAR     30  25  80 NW6       30.27S
$$

KSZ066>073-081>083-090>101-261400-
SOUTHEAST KANSAS

CITY           SKY/WX    TMP DP  RH WIND       PRES   REMARKS
CHANUTE        CLOUDY    38  33  82 N9        30.21R
COFFEYVILLE    CLOUDY    39  34  82 N13       30.19R WCI  31
HUTCHINSON     CLEAR     33  26  75 NW10      30.26R WCI  25
MEDICINE LODGE   N/A     33  29  85 N5        30.27R
NEWTON         CLEAR     30  25  80 N9        30.24S
PARSONS        CLOUDY    39  34  82 N13G18    30.21R WCI  31
WICHITA INTL   PTCLDY    36  29  75 N13       30.23R WCI  27
WICHITA JABRA  CLEAR     33  29  85 N13       30.23R WCI  24
WINFIELD       CLEAR     34  30  85 N6        30.24R
$$

KSZ007>012-019>026-033>040-048>060-102>105-261400-
NORTHEAST KANSAS

CITY           SKY/WX    TMP DP  RH WIND       PRES   REMARKS
CONCORDIA      CLEAR     26  23  88 W8        30.26R
EMPORIA        CLEAR     32  28  85 N7        30.23R
LAWRENCE       CLEAR     29  26  89 NW6       30.24R
MANHATTAN      CLEAR     31  26  82 N5        30.26R
OLATHE IND     PTCLDY    31  29  92 N7        30.22R
OLATHE EXE     PTCLDY    34  30  85 N7        30.20R
SALINA         CLEAR     28  23  81 W7        30.27R
TOPEKA BILLARD CLEAR     32  28  85 NW5       30.25R
TOPEKA FORBES  CLEAR     33  28  81 N5        30.23R
$$



USA.gov is the U.S. government's official web portal to all federal, state and local government web resources and services.